Flag for Saudi Arabia Weather past 2 weeks in Riyadh, Saudi Arabia

Now
84 °F

Sunny.


Feels Like: 81 °F
Forecast: 79 / 112 °F
Wind: No wind

Location: King Khaled International Airport

Current Time: Jul 29, 2015 at 6:09:28 AM

Latest Report: Jul 29, 2015 at 6:00 AM


Visibility: 10 mi

Pressure: 29.68 "Hg (27.76 "Hg at 590m altitude)

Humidity: 11%

Dew point: 25 °F

Location of RiyadhLocation

Historic Weather in Riyadh — Graph

°F

Riyadh temperature yesterday

Maximum temperature yesterday: 109 °F (at 11:00 AM)
Minimum temperature yesterday: 84 °F (at 5:00 AM)
Average temperature yesterday: 99 °F

Past Weeks' High & Low Weather Summary

 TemperatureHumidityPressure
High113 °F (Jul 15, 2:00 PM)27% (Jul 27, 6:00 AM)30.24 "Hg (Jul 27, 6:00 AM)
Low82 °F (Jul 19, 4:00 AM)4% (Jul 23, 3:00 PM)29.56 "Hg (Jul 26, 3:00 PM)
Average99 °F10%29.66 "Hg
* Reported Jul 14 5:00 AM — Jul 29 5:00 AM, Riyadh, Weather by CustomWeather, © 2015

Note: Actual official high and low records may vary slightly from our data, if they occured in-between our weather recording intervals... More about our weather records

Advertising

Riyadh weather history for previous 24 hours

 ConditionsComfort  
Time TempWeatherWind HumidityBarometerVisibility
5:00 AM
Wed, Jul 29
86 °FClear.5 mph11%29.68 "Hg10 mi
4:00 AM84 °FClear.6 mph11%29.68 "Hg10 mi
3:00 AM90 °FClear.No wind9%29.68 "Hg10 mi
2:00 AM88 °FClear.7 mph11%29.68 "Hg10 mi
12:00 AM90 °FClear.No wind10%29.68 "Hg10 mi
11:00 PM
Tue, Jul 28
93 °FClear.No wind10%29.68 "Hg10 mi
10:00 PM97 °FClear.7 mph8%29.68 "Hg10 mi
9:00 PM99 °FClear.7 mph8%29.65 "Hg10 mi
8:00 PM102 °FClear.7 mph7%29.65 "Hg5 mi
7:00 PM106 °FClear.8 mph7%29.62 "Hg10 mi
6:00 PM108 °FSunny.6 mph7%29.59 "Hg10 mi
5:00 PM109 °FSunny.9 mph7%29.59 "Hg10 mi
4:00 PM109 °FSunny.5 mph7%29.62 "Hg10 mi
3:00 PM109 °FSunny.9 mph7%29.62 "Hg10 mi
2:00 PM109 °FSunny.12 mph7%29.62 "Hg5 mi
1:00 PM109 °FSunny.10 mph7%29.65 "Hg5 mi
12:00 PM108 °FSunny.9 mph9%29.68 "Hg5 mi
11:00 AM109 °FSunny.7 mph10%29.68 "Hg5 mi
10:00 AM104 °FSunny.5 mph12%29.71 "Hg5 mi
9:00 AM102 °FSunny.5 mph12%29.71 "Hg5 mi
8:00 AM95 °FSunny.8 mph14%29.71 "Hg10 mi
7:00 AM90 °FSunny.3 mph17%29.68 "Hg10 mi
6:00 AM86 °FSunny.6 mph20%29.68 "Hg10 mi
Weather by CustomWeather, © 2015

See weather overviewHow to use our weather pages